SB KEPS @ AMSAT $ORB08143.N 2Line Orbital Elements 08143.AMSAT
HR AMSAT ORBITAL ELEMENTS FOR AMATEUR SATELLITES IN NASA FORMAT FROM WA5QGD FORT WORTH,TX May 22, 2008 Send Subscribe/unsubscribe to KEPS at http://www.amsat.org/mailman/listinfo/keps BID: ORB08143.N
DECODE 2-LINE ELSETS WITH THE FOLLOWING KEY: 1 AAAAAU 00 0 0 BBBBB.BBBBBBBB .CCCCCCCC 00000-0 00000-0 0 DDDZ 2 AAAAA EEE.EEEE FFF.FFFF GGGGGGG HHH.HHHH III.IIII JJ.JJJJJJJJKKKKKZ KEY: A-CATALOGNUM B-EPOCHTIME C-DECAY D-ELSETNUM E-INCLINATION F-RAAN G-ECCENTRICITY H-ARGPERIGEE I-MNANOM J-MNMOTION K-ORBITNUM Z-CHECKSUM
TO ALL RADIO AMATEURS BT
AO-07 1 07530U 74089B 08143.51608872 -.00000027 00000-0 10000-3 0 1824 2 07530 101.4664 175.8699 0011697 312.9709 047.0384 12.53573791533762 AO-10 1 14129U 83058B 08142.04210962 .00000006 00000-0 10000-3 0 05109 2 14129 025.9433 214.3894 5993602 125.3703 306.1432 02.05868367187540 UO-11 1 14781U 84021B 08142.87965161 .00000403 00000-0 60939-4 0 06753 2 14781 098.1554 176.5182 0009562 152.4363 207.7347 14.79644443299962 RS-15 1 23439U 94085A 08142.58363573 -.00000039 00000-0 10000-3 0 1182 2 23439 064.8155 178.0670 0147983 127.8962 233.5450 11.27551818551965 FO-29 1 24278U 96046B 08142.79398947 .00000076 00000-0 11673-3 0 07889 2 24278 098.5888 062.5332 0349772 283.9480 072.3000 13.52937763580829 SO-33 1 25509U 98061B 08142.90868348 .00000225 00000-0 32025-4 0 02039 2 25509 031.4279 104.9406 0354668 157.5350 204.1228 14.28215793499857 AO-40 1 26609U 00072B 08143.33251726 -.00000085 00000-0 10000-3 0 615 2 26609 007.5644 081.5958 7912190 083.7148 351.2022 01.25584833 34716 VO-52 1 28650U 05017B 08142.65966166 -.00000082 00000-0 -36850-5 0 9353 2 28650 097.7912 209.9961 0026368 225.3611 134.5443 14.81462978164677 PO-63 1 29712U 07001D 08143.67096083 .00000577 00000-0 82699-4 0 4671 2 29712 097.8762 202.3353 0015598 103.2766 257.0201 14.80155031 73693 AO-16 1 20439U 90005D 08142.51535628 -.00000012 00000-0 10750-4 0 3256 2 20439 098.2272 123.9434 0009929 257.1851 102.8229 14.31793662957102 LO-19 1 20442U 90005G 08142.91644367 .00000041 00000-0 30495-4 0 02545 2 20442 098.1983 132.9401 0010926 252.8624 107.1355 14.32032468957319 AO-27 1 22825U 93061C 08142.87792232 .00000002 00000-0 17156-4 0 09753 2 22825 098.3819 103.8893 0008171 345.4246 014.6701 14.29239181764013 IO-26 1 22826U 93061D 08142.65655785 -.00000005 00000-0 14462-4 0 06816 2 22826 098.3746 104.5972 0008985 342.4145 017.6723 14.29487705764077 PO-28 1 22829U 93061G 08142.93590088 .00000014 00000-0 21467-4 0 09516 2 22829 098.3628 105.9752 0009126 311.7023 048.3399 14.30189155764375 GO-32 1 25397U 98043D 08142.88600946 -.00000084 00000-0 -19021-4 0 06073 2 25397 098.3650 179.3449 0000879 006.8152 353.3016 14.23143173512471 MO-46 1 26548U 00057D 08142.73757437 .00000063 00000-0 25765-4 0 01052 2 26548 064.5576 212.1164 0026963 327.6621 032.2839 14.83261289413896 NO-44 1 26931U 01043C 08142.83922824 -.00000204 00000-0 -47424-4 0 08848 2 26931 067.0537 352.5342 0006335 276.7389 083.2961 14.29522366346646 SO-50 1 27607U 02058C 08143.45048594 .00000041 00000-0 28425-4 0 6089 2 27607 064.5569 131.8000 0085183 284.6164 074.5522 14.71356405291180 CO-55 1 27844U 03031E 08142.53118804 .00000051 00000-0 43905-4 0 03116 2 27844 098.7148 151.1686 0009586 188.0453 172.0582 14.20579892253652 CO-57 1 27848U 03031J 08143.58233457 .00000034 00000-0 36079-4 0 2628 2 27848 098.7149 151.3057 0009232 190.0812 170.0183 14.20388746253775 AO-51 1 28375U 04025K 08142.58597216 .00000015 00000-0 17439-4 0 1046 2 28375 098.0728 168.6509 0082898 233.6649 125.6874 14.40607830204578 CO-56 1 28941U 06005C 08143.74471613 .00047128 29583-5 35048-3 0 778 2 28941 098.1063 250.9855 0171286 133.6184 227.9404 15.55874363126080 CP4 1 31122U 07012F 08143.58236760 .00000552 00000-0 13192-3 0 3436 2 31122 098.0437 210.1234 0086581 050.3493 310.5312 14.55126225 58356 CP3 1 31128U 07012M 08142.66577123 -.00000046 00000-0 00000-0 0 03385 2 31128 098.0406 207.2242 0103846 057.6237 303.4957 14.51945759058087 LIBERT 1 31129U 07012N 08143.67523408 .00000340 00000-0 89029-4 0 9851 2 31129 098.0418 208.2318 0103811 054.1727 306.9028 14.52036529 58213 NOAA-10 1 16969U 86073A 08142.79732728 .00000026 00000-0 29028-4 0 01282 2 16969 098.7223 164.8188 0011435 258.2533 101.7381 14.27359812127678 NOAA-11 1 19531U 88089A 08142.64864306 .00000229 00000-0 14100-3 0 01707 2 19531 098.7970 232.3425 0012058 140.8400 219.3653 14.14872471014154 NOAA-12 1 21263U 91032A 08142.67053100 .00000103 00000-0 62366-4 0 06804 2 21263 098.7645 144.6254 0012124 198.1048 161.9680 14.25532843884617 MET-3/5 1 21655U 91056A 08142.90782631 .00000051 00000-0 10000-3 0 04750 2 21655 082.5522 122.9498 0015017 078.7735 281.5074 13.17015321806129 MET-2/21 1 22782U 93055A 08142.52533791 .00000060 00000-0 41176-4 0 1488 2 22782 082.5445 132.7287 0023026 009.2106 350.9469 13.83627813743442 OKEAN-4 1 23317U 94066A 08142.73572870 .00000250 00000-0 28071-4 0 05934 2 23317 082.5381 339.7538 0021092 210.6683 149.3291 14.82611545734362 NOAA-14 1 23455U 94089A 08142.72470035 -.00000213 00000-0 -88661-4 0 01513 2 23455 098.9473 214.9507 0008992 214.5665 145.4922 14.13740668690615 SICH-1 1 23657U 95046A 08143.75388680 .00000091 00000-0 85271-5 0 3912 2 23657 082.5251 119.7828 0023041 199.5847 160.4483 14.81578352686456 NOAA-15 1 25338U 98030A 08142.67013622 .00000053 00000-0 41128-4 0 04738 2 25338 098.5525 135.2047 0011684 116.4896 243.7489 14.24701779521023 RESURS 1 25394U 98043A 08142.97336175 -.00000004 00000-0 16099-4 0 09335 2 25394 098.3899 188.1244 0000913 319.1525 040.9586 14.24159547512718 FENGYUN1 1 25730U 99025A 08142.97169524 -.00000391 00000-0 -20575-3 0 04701 2 25730 098.7223 119.6472 0018943 247.8244 112.0914 14.07691861465271 OKEAN-0 1 25860U 99039A 08143.58393702 .00000038 00000-0 13099-4 0 3737 2 25860 097.7483 135.2664 0001585 047.1048 313.0283 14.73521543475620 NOAA-16 1 26536U 00055A 08142.71435408 -.00000005 00000-0 22764-4 0 09417 2 26536 099.1550 131.3121 0009779 303.1817 056.8377 14.12481558395035 NOAA-17 1 27453U 02032A 08142.77297679 .00000136 00000-0 77738-4 0 09331 2 27453 098.5355 208.1619 0011954 180.0496 180.0676 14.23975032307041 NOAA-18 1 28654U 05018A 08142.74792713 .00000418 00000-0 25626-3 0 04367 2 28654 098.8667 084.0039 0014969 031.9083 328.2993 14.11165490154747 HUBBLE 1 20580U 90037B 08142.40360793 .00000305 00000-0 10770-4 0 01518 2 20580 028.4678 137.9172 0003815 102.3188 257.7828 15.00379091790956 UARS 1 21701U 91063B 08142.87662611 .00006761 00000-0 10136-3 0 3709 2 21701 056.9729 276.1656 0089391 128.2859 232.6284 15.51826937918416 PO-34 1 25520U 98064B 08143.80564661 .00000374 00000-0 86568-5 0 9984 2 25520 028.4593 348.7081 0005136 008.6003 351.4678 15.17191437529302 ISS 1 25544U 98067A 08143.32928241 .00008455 00000-0 56307-4 0 5260 2 25544 051.6376 149.6881 0005602 240.3546 318.8778 15.76401038544442 OO-38 1 26063U 00004C 08143.71747497 -.00000027 00000-0 11228-4 0 2163 2 26063 100.1919 213.7204 0036546 281.5202 078.1879 14.35835438435919 UWE-1 1 28892U 05043C 08142.69178309 .00000158 00000-0 42676-4 0 00533 2 28892 098.1002 036.9630 0018299 130.1041 230.1761 14.59628844136738 CO-58 1 28895U 05043F 08142.66043113 .00000094 00000-0 29333-4 0 00272 2 28895 098.1038 037.2807 0018921 130.4538 229.8326 14.59668684136611 NCUBE2 1 28897U 05043H 08142.21680553 .00000085 00000-0 27229-4 0 05581 2 28897 098.0992 036.7782 0017816 131.9558 228.3159 14.59838622128831 FCAL 1 29667U 06055J 08143.72323539 .01314477 12289-4 14763-3 0 9702 2 29667 051.6088 080.2141 0005602 267.9700 092.1383 16.36228340 82483 FALCON 1 30776U 07006E 08143.80038792 .00000392 00000-0 31611-4 0 3173 2 30776 035.4352 307.4580 0000591 242.9754 117.0902 15.02987427 66324 MAST 1 31126U 07012K 08143.21853006 .00000136 00000-0 41317-4 0 3325 2 31126 098.0393 208.6877 0095666 052.9568 308.0352 14.53424031 58249 CAPE1 1 31130U 07012P 08142.93650639 -.00000045 00000-0 41401-6 0 03253 2 31130 098.0403 207.4884 0103879 056.9966 304.1140 14.51962248057913 CUTE1-7 1 32785U 08021C 08142.37101043 .00000075 00000-0 16542-4 0 00568 2 32785 097.9939 202.3531 0014215 219.9593 140.0574 14.81357550003430 COMPASS 1 32787U 08021E 08142.37027653 .00000053 00000-0 13660-4 0 00467 2 32787 097.9896 202.3388 0015097 220.8012 139.2070 14.81405803003436 AAUSAT2 1 32788U 08021F 08142.97646257 -.00000065 00000-0 -13469-5 0 00554 2 32788 097.9913 202.9467 0014764 217.4440 142.5751 14.81512971003526 DELFIC3 1 32789U 08021G 08142.91108798 .00000167 00000-0 28284-4 0 00553 2 32789 097.9918 202.8864 0015061 218.3591 141.6553 14.81381767003516 SEEDS 1 32791U 08021J 08142.37243550 .00000190 00000-0 31241-4 0 00487 2 32791 097.9946 202.3458 0015383 218.6653 141.3458 14.81267587003405 CANX-2 1 32797U 08021L 08142.66695120 .00002571 00000-0 33346-3 0 155 2 32797 097.9967 202.6548 0015596 218.8147 293.2722 14.81593525 2159 /EX
participants (1)
-
Ray Hoad